Location: Les Coudrans
(46.1056°N, 1.1158°W)
Time: 18:44:26
(UTC+00:00)

Nadezhda 3 Rocket - Pass Details

Date: 03 March 2021
Orbit: 957 x 999 km, 82.9° (Epoch: 15 April)

Event Time Altitude Azimuth Distance (km) Brightness Sun altitude
Rises 19:12:17 0° 349° (N) 3,725 7.3 -14.4°
Reaches altitude 10° 19:14:49 10° 347° (NNW) 2,775 6.6 -14.8°
Maximum altitude 19:21:09 69° 266° (W) 1,067 4.4 -15.9°
Drops below altitude 10° 19:27:26 10° 184° (S) 2,760 6.3 -17.0°
Sets 19:29:58 0° 182° (S) 3,703 7.0 -17.4°
